Richmond, VA

1:26 PM EDT on March 27, 2017 (GMT -0400)
Richmond International

Weather History for KRIC - November, 2013

Change the Weather History Date:

Wednesday, November 6, 2013

  Actual Average Record
Temperature  
Mean Temperature 60 °F 54 °F  
Max Temperature 72 °F 65 °F 81 °F (1975)
Min Temperature 48 °F 42 °F 22 °F (1967)
Degree Days  
Heating Degree Days 5 12  
Month to date heating degree days 50 67  
Since 1 July heating degree days 200 300  
Cooling Degree Days 0 0  
Month to date cooling degree days 8 0  
Year to date cooling degree days 1678 1543  
Growing Degree Days 10 (Base 50)    
Moisture  
Dew Point 49 °F    
Average Humidity 67    
Maximum Humidity 86    
Minimum Humidity 47    
Precipitation  
Precipitation 0.00 in 0.11 in 2.71 in (1959)
Month to date precipitation T 0.66  
Year to date precipitation 44.51 37.76  
Snow  
Snow 0.00 in 0.00 in 7.20 in (1953)
Month to date snowfall 0.0 0.0  
Since 1 July snowfall 0.0 0.0  
Snow Depth 0.00 in    
Sea Level Pressure  
Sea Level Pressure 30.32 in    
Wind  
Wind Speed 5 mph (SE)    
Max Wind Speed 15 mph    
Max Gust Speed 17 mph    
Visibility 10 miles    
Events      
T = Trace of Precipitation, MM = Missing Value Source: NWS Daily Summary

Daily Weather History Graph

Daily Weather History Graph

Search for Another Location

Airport or City:

Trip Planner

Search our weather history database for the weather conditions in past years. The results will help you decide how hot, cold, wet, or windy it might be!

Date:

Astronomy

Nov. 06, 2013 Rise Set
Actual Time 6:39 AM EST 5:05 PM EST
Civil Twilight 6:12 AM EST 5:33 PM EST
Nautical Twilight 5:41 AM EST 6:04 PM EST
Astronomical Twilight 5:10 AM EST 6:34 PM EST
Moon 9:50 AM EST (11/6) 8:09 PM EST (11/6)
Length of Visible Light 11h 20m
Length of Day
10h 26m
Waxing Crescent, 13% of the Moon is Illuminated
Nov 6
Waxing Crescent
Nov 10
First Quarter
Nov 17
Full
Nov 25
Last Quarter
Dec 2
New

Hourly Weather History & Observations

Time (EST) Temp. Dew Point Humidity Pressure Visibility Wind Dir Wind Speed Gust Speed Precip Events Conditions
12:54 AM 55.9 °F 48.0 °F 75% 30.47 in 10.0 mi Calm Calm - N/A   Overcast
1:54 AM 55.0 °F 48.0 °F 77% 30.45 in 10.0 mi ENE 4.6 mph - N/A   Overcast
2:54 AM 55.0 °F 48.0 °F 77% 30.43 in 10.0 mi Calm Calm - N/A   Overcast
3:54 AM 53.1 °F 46.9 °F 80% 30.42 in 10.0 mi NNW 4.6 mph - N/A   Overcast
4:54 AM 50.0 °F 45.0 °F 83% 30.42 in 10.0 mi Calm Calm - N/A   Scattered Clouds
5:54 AM 48.9 °F 45.0 °F 86% 30.41 in 10.0 mi North 4.6 mph - N/A   Scattered Clouds
6:54 AM 48.9 °F 45.0 °F 86% 30.41 in 9.0 mi North 3.5 mph - N/A   Scattered Clouds
7:54 AM 52.0 °F 46.9 °F 83% 30.41 in 10.0 mi North 4.6 mph - N/A   Scattered Clouds
8:54 AM 57.0 °F 48.9 °F 74% 30.40 in 10.0 mi North 3.5 mph - N/A   Mostly Cloudy
9:54 AM 62.1 °F 50.0 °F 65% 30.39 in 10.0 mi Calm Calm - N/A   Mostly Cloudy
10:54 AM 64.9 °F 50.0 °F 58% 30.38 in 10.0 mi SSE 5.8 mph - N/A   Scattered Clouds
11:54 AM 68.0 °F 51.1 °F 55% 30.34 in 10.0 mi ESE 6.9 mph - N/A   Scattered Clouds
12:54 PM 70.0 °F 51.1 °F 51% 30.30 in 10.0 mi South 9.2 mph - N/A   Mostly Cloudy
1:54 PM 71.1 °F 50.0 °F 47% 30.28 in 10.0 mi South 11.5 mph - N/A   Mostly Cloudy
2:54 PM 71.1 °F 51.1 °F 49% 30.27 in 10.0 mi South 9.2 mph - N/A   Mostly Cloudy
3:54 PM 68.0 °F 51.1 °F 55% 30.25 in 10.0 mi SSE 5.8 mph - N/A   Mostly Cloudy
4:54 PM 66.9 °F 52.0 °F 59% 30.23 in 10.0 mi SE 6.9 mph - N/A   Mostly Cloudy
5:54 PM 64.0 °F 52.0 °F 65% 30.23 in 10.0 mi SE 5.8 mph - N/A   Mostly Cloudy
6:54 PM 61.0 °F 52.0 °F 72% 30.22 in 10.0 mi SE 5.8 mph - N/A   Overcast
7:54 PM 59.0 °F 50.0 °F 72% 30.21 in 10.0 mi South 3.5 mph - N/A   Mostly Cloudy
8:54 PM 60.1 °F 51.1 °F 72% 30.19 in 10.0 mi SE 4.6 mph - N/A   Overcast
9:54 PM 57.9 °F 51.1 °F 78% 30.17 in 10.0 mi SSE 4.6 mph - N/A   Partly Cloudy
10:54 PM 57.9 °F 52.0 °F 81% 30.14 in 10.0 mi SE 3.5 mph - N/A   Clear
11:54 PM 55.9 °F 52.0 °F 87% 30.13 in 10.0 mi South 8.1 mph - N/A   Partly Cloudy